[[{"header":{"parameterUnit":"m.s-1","parameterCategory":1,"la1":30.2991,"la2":30.254,"lo1":-89.0895,"lo2":-89.0444,"dy":0.0017,"dx":0.0017,"nx":28,"ny":28,"refTime":"2023-08-01T21:00:00:Z","depth":0,"parameterNumber":2,"parameterNumberName":"U-component_of_WINDS"},"data":[0,0,0,0,0,0,0,0,0,0,0,0,0,0,0,0,0,0,0,0,0,0,0,0,0,0,0,0,0,0,0,0,0,0,0,0,0,0,0,0,0,0,0,0,0,0,0,0,0,0,0,0,0,0,0,0,0,0,1.8989,1.8991,0,1.9147,1.9149,1.9151,1.9166,1.9164,1.9162,1.9161,1.9323,1.9329,1.9335,0,0,0,0,0,0,0,0,0,0,0,0,0,1.87,1.8706,1.8989,1.8991,1.8993,1.9147,1.9149,1.9151,1.9166,1.9164,1.9162,1.916,1.9322,1.9328,1.9336,0,0,0,0,0,0,0,0,0,0,0,0,0,1.8839,1.8707,1.8989,1.9019,1.9023,1.9146,1.9149,1.9152,1.9166,1.9164,1.9161,1.9159,1.9319,1.9328,1.9337,1.9441,0,0,1.9363,1.9367,0,0,0,0,0,0,0,0,1.8831,1.8849,1.9012,1.9017,1.9022,1.9134,1.9107,1.9249,1.9167,1.9112,1.9161,1.9158,1.9263,1.9276,1.9311,1.9448,1.9455,1.9364,1.937,1.9373,1.9376,0,0,0,0,0,0,0,1.8821,1.8843,1.9051,1.9015,1.9021,1.9024,1.9041,1.9134,1.9199,1.9116,1.9118,1.9136,1.9265,1.9302,1.9315,1.9458,1.9364,1.9372,1.9377,1.9381,1.9688,1.9691,0,0,0,0,0,0,1.8806,1.8834,1.9046,1.9056,1.8918,1.9032,1.9051,1.9101,1.9198,1.9211,1.9138,1.9136,1.9289,1.9305,1.9321,1.9448,1.9373,1.9382,1.9387,1.9685,1.9689,1.9692,0,0,0,0,0,0,1.88,1.8825,1.904,1.8946,1.8974,1.9039,1.9095,1.9105,1.9143,1.9215,1.9227,1.9165,1.9287,1.9308,1.9411,1.9454,1.9386,1.9394,1.9682,1.9686,1.969,1.9705,0,0,0,0,0,0,1.8791,1.8822,1.8863,1.8947,1.8979,1.9127,1.9098,1.911,1.9158,1.9157,1.9243,1.9255,1.9287,1.9397,1.9419,1.9465,1.94,1.9678,1.9684,1.9689,1.9701,1.9709,1.9717,0,0,0,0,0,1.8781,1.8861,1.8865,1.889,1.903,1.913,1.9148,1.9183,1.9161,1.9202,1.9248,1.9252,1.9446,1.9408,1.9433,1.9482,1.9675,1.9682,1.9688,1.9697,1.9708,1.9716,0,0,0,0,0,0,1.8781,1.8872,1.8878,1.8987,1.905,1.9132,1.9185,1.9193,1.9264,1.926,1.9301,1.932,1.9421,1.9462,1.9417,1.9587,1.9559,1.957,1.9557,1.9567,1.9575,1.9563,1.9408,0,0,0,0,0,1.8793,1.8866,1.8943,1.9032,1.9063,1.9118,1.9163,1.9185,1.9252,1.9279,1.9333,1.9398,1.9474,1.9523,1.9597,1.9707,1.9726,1.9753,1.9761,1.9767,1.9777,1.9837,1.985,1.9713,1.9713,1.9713,0,0,1.882,1.8879,1.8923,1.9033,1.9085,1.9159,1.9141,1.9221,1.9277,1.9291,1.9391,1.9433,1.9508,1.9615,1.9664,1.9652,1.9819,1.9775,1.978,1.9786,1.9845,1.9858,1.987,1.9717,1.9716,1.9716,0,0,1.8907,1.896,1.9039,1.9091,1.9169,1.9205,1.9224,1.9305,1.9333,1.9433,1.9446,1.9513,1.9643,1.9696,1.974,1.9846,1.9852,1.9869,1.991,1.9969,1.9979,1.9989,2.0026,2.0039,1.9879,1.9879,1.9879,0,1.8931,1.9043,1.9079,1.9159,1.9206,1.9223,1.9304,1.9352,1.9451,1.9483,1.9468,1.9631,1.9683,1.9802,1.9827,1.9863,1.9886,1.9859,1.9975,1.9985,1.9995,2.0031,2.0045,1.988,1.988,1.988,1.988,0,1.9068,1.9146,1.9201,1.9295,1.9349,1.9429,1.9476,1.9527,1.9544,1.9582,1.9683,1.9747,1.9833,1.9863,1.9881,1.9984,1.9974,1.9966,1.9938,2.0009,2.0043,2.0057,1.9883,1.9882,1.9882,1.9881,0,0,1.9159,1.9271,1.9291,1.9333,1.9421,1.9482,1.9562,1.9646,1.9688,1.9756,1.9824,1.9933,1.9926,1.9976,2.0,2.0051,2.013,2.0037,2.004,2.0052,2.0248,2.0252,2.0268,2.0135,2.0138,2.014,2.0241,0,1.9255,1.9398,1.9432,1.9555,1.9627,1.9643,1.9713,1.9774,1.9812,1.9878,1.992,1.9996,1.9982,2.0012,2.0064,2.011,2.017,2.0103,2.0198,2.0201,2.0178,2.0286,2.0291,2.0383,2.0255,2.0257,2.0259,0,1.9386,1.9456,1.9585,1.9662,1.9694,1.9756,1.9835,1.9899,1.9968,1.9992,2.0047,2.0066,2.015,2.0118,2.0234,2.0187,2.0229,2.0257,2.0262,2.0271,2.0234,2.0297,2.0414,2.0427,2.0281,2.0279,2.0277,0,1.9438,1.9564,1.9658,1.9694,1.9786,1.9829,1.987,1.9937,1.9985,2.0055,2.0086,2.0165,2.0208,2.0269,2.0308,2.0281,2.0421,2.0392,2.0442,2.0441,2.0471,2.0468,2.0594,2.0498,2.0498,2.0498,2.0498,0,1.9541,1.962,1.9682,1.974,1.9828,1.9866,1.9953,1.9994,2.0053,2.0119,2.0138,2.0199,2.0248,2.0316,2.0347,2.0438,2.0458,2.0479,2.0486,2.0477,2.0474,2.0504,2.0498,2.0502,2.0501,2.05,2.05,0,1.9614,1.9659,1.9762,1.9841,1.9863,1.9924,1.9992,2.0048,2.0086,2.0169,2.019,2.025,2.0331,2.0376,2.0478,2.0499,2.06,2.0605,2.0576,2.0579,2.0627,2.0621,2.0776,2.0798,2.0688,2.0689,2.069,0,1.9677,1.9737,1.9822,1.9867,1.9909,1.9981,2.003,2.0071,2.0121,2.0204,2.0251,2.0332,2.04,2.0528,2.0581,2.0659,2.0665,2.0714,2.0677,2.0665,2.0665,2.066,2.0666,2.072,2.0721,2.0721,2.0722,0,1.9782,1.9801,1.9871,1.9948,2.0006,2.0069,2.0132,2.0168,2.0219,2.0274,2.0357,2.0409,2.0513,2.0593,2.0676,2.0718,2.0729,2.0733,2.0749,2.074,2.072,2.073,2.0593,2.073,2.0729,2.0728,2.0728,2.0728,1.9851,1.9905,1.9974,2.005,2.0102,2.0159,2.0216,2.026,2.033,2.0417,2.0437,2.0524,2.0591,2.0703,2.0747,2.0816,2.0806,2.0829,2.0835,2.084,2.0841,2.071,2.0831,2.0831,2.0831,2.083,2.083,0,1.9957,2.0002,2.0072,2.0158,2.0219,2.0223,2.0293,2.0343,2.0419,2.0481,2.0547,2.0641,2.072,2.0778,2.0858,2.0902,2.0909,2.0922,2.0918,2.0928,2.0845,2.0823,2.0915,2.0915,2.0915,2.0915,2.0915,2.0915,2.0019,2.011,2.0138,2.0255,2.0299,2.0384,2.0423,2.0476,2.0526,2.063,2.0695,2.0733,2.0794,2.0878,2.0951,2.0966,2.0994,2.1006,2.1022,2.0943,2.0934,2.0925,2.0905,2.1012,2.1012,2.1099,2.11,2.11]},{"header":{"parameterUnit":"m.s-1","parameterCategory":1,"la1":30.2991,"la2":30.254,"lo1":-89.0895,"lo2":-89.0444,"dy":0.0017,"dx":0.0017,"nx":28,"ny":28,"refTime":"2023-08-01T21:00:00:Z","depth":0,"parameterNumber":3,"parameterNumberName":"V-component_of_WINDS"},"data":[0,0,0,0,0,0,0,0,0,0,0,0,0,0,0,0,0,0,0,0,0,0,0,0,0,0,0,0,0,0,0,0,0,0,0,0,0,0,0,0,0,0,0,0,0,0,0,0,0,0,0,0,0,0,0,0,0,0,2.4972,2.4972,0,2.4881,2.488,2.4879,2.4769,2.4768,2.4766,2.4764,2.4668,2.4667,2.4666,0,0,0,0,0,0,0,0,0,0,0,0,0,2.505,2.5049,2.4973,2.4971,2.497,2.4881,2.488,2.4879,2.477,2.4768,2.4766,2.4764,2.4668,2.4667,2.4666,0,0,0,0,0,0,0,0,0,0,0,0,0,2.4993,2.5049,2.4973,2.4905,2.4898,2.4881,2.488,2.4878,2.477,2.4768,2.4765,2.4763,2.4669,2.4667,2.4666,2.4707,0,0,2.4661,2.4661,0,0,0,0,0,0,0,0,2.4997,2.499,2.4916,2.491,2.4902,2.4834,2.4872,2.4821,2.4771,2.4819,2.4764,2.4761,2.4725,2.4719,2.4707,2.4703,2.4698,2.4661,2.466,2.466,2.4659,0,0,0,0,0,0,0,2.5001,2.4994,2.4936,2.4915,2.4907,2.4878,2.4868,2.4862,2.4787,2.4814,2.4806,2.4797,2.4721,2.4709,2.4704,2.4697,2.4661,2.466,2.4659,2.4658,2.472,2.4722,0,0,0,0,0,0,2.5015,2.4998,2.4939,2.4933,2.4944,2.4879,2.4867,2.4858,2.4787,2.4774,2.4799,2.4792,2.4713,2.4706,2.47,2.4743,2.466,2.4658,2.4657,2.4717,2.472,2.4723,0,0,0,0,0,0,2.5017,2.5011,2.4943,2.4963,2.4953,2.4881,2.4872,2.4858,2.4846,2.4776,2.4761,2.4801,2.471,2.4702,2.4706,2.4738,2.4658,2.4656,2.4714,2.4718,2.4722,2.4829,0,0,0,0,0,0,2.502,2.5012,2.5028,2.4965,2.4952,2.4952,2.4874,2.4858,2.4844,2.4834,2.4773,2.4761,2.4708,2.4709,2.4705,2.4734,2.4655,2.4711,2.4716,2.4721,2.4822,2.4836,2.4848,0,0,0,0,0,2.5023,2.5062,2.503,2.5023,2.497,2.4954,2.4946,2.4885,2.4847,2.4862,2.4816,2.4763,2.4735,2.471,2.4704,2.4734,2.4709,2.4715,2.472,2.4817,2.4834,2.4848,0,0,0,0,0,0,2.513,2.5052,2.5016,2.5035,2.5002,2.4935,2.4952,2.4905,2.4881,2.4873,2.4797,2.4784,2.4797,2.4766,2.4739,2.477,2.4714,2.4719,2.479,2.4805,2.4817,2.4824,2.4654,0,0,0,0,0,2.5156,2.515,2.5082,2.5106,2.5091,2.5025,2.5015,2.4971,2.4933,2.4918,2.4873,2.4838,2.482,2.4811,2.4791,2.4817,2.4802,2.4835,2.4848,2.4859,2.4863,2.4873,2.4887,2.4742,2.4742,2.4742,0,0,2.521,2.5166,2.5167,2.5126,2.5095,2.509,2.5014,2.5011,2.5006,2.4917,2.4918,2.4884,2.4839,2.4854,2.4858,2.4828,2.49,2.4866,2.4875,2.4874,2.4881,2.4894,2.4907,2.4746,2.4745,2.4744,0,0,2.5304,2.5272,2.5287,2.5258,2.5212,2.5168,2.5172,2.5112,2.5086,2.5086,2.5019,2.5011,2.4984,2.4954,2.4935,2.5018,2.4968,2.5014,2.508,2.5091,2.5102,2.5112,2.514,2.5152,2.5019,2.5019,2.5019,0,2.5376,2.5366,2.5301,2.5302,2.5286,2.5206,2.5221,2.5195,2.5146,2.5135,2.5103,2.5067,2.5031,2.5037,2.5057,2.5045,2.5046,2.502,2.5106,2.5115,2.5123,2.5149,2.516,2.5025,2.5024,2.5024,2.5023,0,2.5456,2.545,2.5468,2.5423,2.5408,2.5416,2.5351,2.5344,2.5301,2.526,2.526,2.5214,2.5183,2.5181,2.5139,2.5181,2.5164,2.512,2.5063,2.5144,2.5167,2.5177,2.5034,2.5031,2.503,2.5028,0,0,2.5616,2.5534,2.5542,2.552,2.5463,2.5457,2.5461,2.5431,2.5426,2.5394,2.5395,2.5373,2.5332,2.5311,2.5264,2.5274,2.5341,2.5228,2.5226,2.525,2.5383,2.5416,2.5429,2.5307,2.5309,2.531,2.5386,0,2.5699,2.5702,2.5644,2.5662,2.5655,2.5579,2.5582,2.5548,2.5509,2.5496,2.5452,2.5438,2.5385,2.5372,2.5378,2.5332,2.5367,2.5325,2.5306,2.5306,2.5319,2.5441,2.5476,2.555,2.5395,2.5397,2.5398,0,2.5797,2.5772,2.579,2.5732,2.5727,2.5731,2.5699,2.5688,2.5646,2.5617,2.5594,2.5541,2.5539,2.5485,2.5481,2.5454,2.5442,2.5418,2.542,2.5415,2.5357,2.5439,2.5573,2.5584,2.5412,2.541,2.5409,0,2.5911,2.5881,2.5887,2.5871,2.5804,2.5808,2.578,2.5736,2.5722,2.5694,2.5683,2.5655,2.564,2.5618,2.5558,2.5525,2.556,2.5502,2.5535,2.5536,2.5545,2.5545,2.5678,2.5539,2.5539,2.5539,2.5539,0,2.601,2.6024,2.5937,2.5942,2.5955,2.5886,2.5901,2.5865,2.5826,2.5821,2.5753,2.575,2.5671,2.5658,2.5611,2.5614,2.5608,2.5583,2.557,2.5589,2.5592,2.558,2.5573,2.5542,2.5541,2.5541,2.554,0,2.6138,2.6082,2.6084,2.602,2.6004,2.6017,2.5961,2.5962,2.5919,2.5913,2.5907,2.584,2.5821,2.5759,2.5725,2.5693,2.571,2.5686,2.5724,2.5716,2.5752,2.5749,2.5881,2.5895,2.5748,2.575,2.5751,0,2.6205,2.6214,2.6152,2.6144,2.6119,2.6107,2.6093,2.6026,2.6013,2.5966,2.5972,2.5947,2.5925,2.5898,2.5844,2.5817,2.5792,2.584,2.5787,2.5805,2.5791,2.5791,2.5791,2.5851,2.5853,2.5855,2.5856,0,2.6329,2.6301,2.6283,2.6255,2.624,2.6215,2.6185,2.6183,2.6107,2.6096,2.6077,2.6059,2.6024,2.6,2.5965,2.5934,2.5882,2.5873,2.5879,2.5898,2.5919,2.5907,2.5755,2.587,2.5869,2.5868,2.5867,2.5866,2.6428,2.6432,2.6389,2.6371,2.6342,2.6316,2.6313,2.627,2.6253,2.622,2.6181,2.6166,2.6122,2.6069,2.6042,2.6028,2.6,2.6009,2.6011,2.6014,2.6023,2.5922,2.6021,2.6021,2.602,2.602,2.6019,0,2.6548,2.6516,2.6501,2.6462,2.6448,2.6402,2.6367,2.6357,2.6345,2.631,2.6289,2.6265,2.6242,2.6187,2.6158,2.6157,2.6133,2.6152,2.6151,2.6144,2.605,2.6047,2.6172,2.6172,2.6172,2.6172,2.6172,2.6172,2.6609,2.6613,2.6579,2.6568,2.6536,2.6521,2.6505,2.648,2.6451,2.6429,2.641,2.6374,2.633,2.6297,2.6273,2.6257,2.6249,2.6276,2.6253,2.6166,2.6151,2.6137,2.6134,2.6275,2.6275,2.6348,2.6348,2.6349]}]]